Regional Weather Roundup
Issued by NWS

Home | Current Version | Previous Version | Text Only | Print | Product List | Glossary On
Versions: 1 2 3 4 5 6 7 8 9 10 11 12 13 14 15 16 17 18 19 20 21 22 23 24 25 26 27 28 29 30 31 32 33 34 35 36 37 38 39 40 41 42 43 44 45 46 47 48 49 50
000
ASUS43 KLSX 281907
RWRMO

WEATHER SUMMARY FOR MISSOURI
NATIONAL WEATHER SERVICE SPRINGFIELD MO
200 PM CDT WED SEP 28 2016

NOTE: "FAIR" INDICATES FEW OR NO CLOUDS BELOW 12,000 FEET WITH NO
       SIGNIFICANT WEATHER AND/OR OBSTRUCTIONS TO VISIBILITY.
       CURRENT SKY AND/OR WEATHER CONDITIONS ARE NOT AVAILABLE FOR
       CHILLICOTHE AND FARMINGTON.

MOZ001>031-035>038-043-044-053-054-282000-
...NORTHERN AND WESTERN MISSOURI...

CITY           SKY/WX    TMP DP  RH WIND       PRES   REMARKS
KANSAS CTY INT MOSUNNY   65  47  52 N16       30.12R
KANSAS C DTWN  SUNNY     67  47  48 N14G23    30.11R
LEE`S SUMMIT   SUNNY     65  47  52 N13G23    30.11R
ST JOSEPH      SUNNY     66  47  50 N15G22    30.14S
CHILLICOTHE      N/A     65  47  52 N9        30.12R
KIRKSVILLE     CLOUDY    61  46  57 N16       30.10R

$$
MOZ066>068-077>081-088>096-101>105-282000-
...SOUTHWEST MISSOURI...

CITY           SKY/WX    TMP DP  RH WIND       PRES   REMARKS
SPRINGFIELD    SUNNY     73  43  33 N15G24    30.02R
JOPLIN         SUNNY     73  44  35 N12G22    30.05R
BRANSON        SUNNY     77  46  33 N12G18    30.00R

$$
MOZ032>034-039>042-045>050-055>058-069>072-282000-
...CENTRAL MISSOURI...

CITY           SKY/WX    TMP DP  RH WIND       PRES   REMARKS
COLUMBIA       SUNNY     68  46  45 N16G24    30.05R
JEFFERSON CITY SUNNY     67  45  45 N8G20     30.04R
ROLLA          SUNNY     66  46  48 N15       30.01R
SEDALIA        SUNNY     69  46  43 N15G22    30.08R
WHITEMAN AFB   MOSUNNY   66  47  50 N16G25    30.06S
OSAGE BEACH    SUNNY     68  48  48 VRB3      30.04R

$$
MOZ051-052-059>065-282000-
...EAST CENTRAL MISSOURI...

CITY           SKY/WX    TMP DP  RH WIND       PRES   REMARKS
ST LOUIS INTL  MOSUNNY   69  44  40 N15       29.99R
SPIRIT OF STL  MOSUNNY   68  47  46 N15       29.99R
ST CHARLES     MOSUNNY   68  46  45 N12       29.99R

$$
MOZ072>076-082>087-097>100-106>115-282000-
...SOUTH CENTRAL AND SOUTHEAST MISSOURI...

CITY           SKY/WX    TMP DP  RH WIND       PRES   REMARKS
CAPE GIRARDEAU SUNNY     74  46  36 NW17G23   29.91R
FARMINGTON     MOSUNNY   68  48  48 NW14G21   29.98R
POPLAR BLUFF   SUNNY     80  51  36 N12       29.89S
WEST PLAINS    SUNNY     76  38  25 NW14G22   29.99R

$$



USA.gov is the U.S. government's official web portal to all federal, state and local government web resources and services.